Theta_e
339 339 340 349 349 349 348 348 352 350 350 349 348 346 343 343 343 343 345 345 345 346 346 346 347 347 346 347 347 347 346 346 345 345 346 347 347 347 347 347 346 346 345 345 347 347 346 346 345 346 347 347 347 346 346 346 345 343 342 340 340 340 339 338 338 339 341 339 336 336 337 337 336 336 336 336 336 340 341 340 339 335 335 338 341
339 340 341 345 350 349 349 348 351 350 350 349 348 346 344 342 342 342 343 344 344 344 345 346 346 346 346 347 347 346 346 345 345 345 344 345 346 346 345 345 345 345 345 345 345 346 346 344 346 346 347 346 346 346 347 346 345 343 341 341 340 340 339 342 343 343 341 340 338 336 335 335 335 336 335 338 338 340 339 340 340 332 331 340 339
340 339 341 345 350 349 349 347 351 350 349 349 348 346 345 342 341 341 342 343 344 343 344 344 346 346 346 347 346 346 346 346 345 344 344 344 344 344 344 344 343 343 345 344 344 345 345 344 346 347 346 346 347 347 346 345 344 343 342 341 341 339 341 341 342 341 341 343 338 335 335 335 334 334 334 336 337 336 338 338 338 338 332 335 332
339 339 341 346 349 348 349 349 351 350 350 350 348 346 345 343 342 340 340 341 342 343 343 343 345 346 345 346 346 346 346 346 347 345 344 343 342 342 343 343 343 342 343 343 344 344 345 345 346 345 346 345 346 346 345 343 343 343 342 341 340 340 340 340 340 340 340 340 339 336 331 327 331 332 332 332 332 332 337 335 335 335 333 331 332
339 339 341 344 344 347 349 349 351 350 350 349 348 346 345 343 342 341 339 340 341 342 343 343 344 344 345 346 346 346 346 347 347 345 344 344 343 341 341 342 342 343 343 343 344 345 346 346 345 345 345 345 344 342 341 341 342 341 341 341 340 340 339 339 339 339 339 338 336 332 323 326 329 336 335 333 332 334 336 332 335 333 332 333 335
339 339 341 342 342 344 349 349 351 351 350 350 348 347 345 343 342 341 339 338 340 342 342 343 343 343 346 346 346 346 347 347 347 346 344 344 343 342 341 342 343 344 345 344 345 345 346 345 345 345 345 345 344 343 341 340 340 341 342 341 340 340 339 338 338 339 338 336 334 323 322 322 325 331 336 337 335 340 332 329 331 332 331 332 332
338 338 340 340 340 344 348 349 350 350 349 349 348 346 345 343 341 341 340 339 339 341 341 341 343 345 346 347 347 347 347 347 346 347 345 344 343 343 343 343 345 346 346 346 345 345 345 344 344 344 345 345 344 343 342 339 337 339 341 340 339 339 337 337 336 336 334 328 318 318 319 320 321 323 335 334 335 335 335 334 334 334 335 334 331
338 339 339 339 339 344 347 348 349 349 349 348 348 346 345 342 341 340 340 339 339 340 341 341 342 346 347 346 347 347 347 347 346 347 346 346 347 346 345 346 346 345 345 345 345 344 343 342 342 342 343 343 343 342 342 342 341 338 338 339 339 338 336 335 335 334 332 320 318 317 320 320 321 321 334 333 333 335 337 337 336 336 336 335 336
337 338 339 338 339 345 345 346 347 348 349 348 347 346 345 341 340 341 341 339 340 340 340 341 343 346 347 347 346 346 347 346 347 347 347 347 346 345 346 346 344 344 344 344 344 344 342 340 341 342 342 343 342 341 341 340 340 340 340 339 338 338 337 335 333 333 327 321 319 319 319 321 321 320 332 334 336 338 340 339 339 335 334 333 332
337 338 338 338 339 344 344 345 346 346 345 346 345 343 344 342 341 341 340 338 340 341 340 341 344 346 347 346 346 346 345 346 346 347 346 347 346 346 345 345 344 343 344 344 344 344 343 342 340 340 341 342 341 340 340 340 340 340 339 338 337 337 337 337 336 334 320 320 320 320 322 334 321 321 330 333 334 336 335 336 336 334 335 331 331
337 337 338 338 338 343 343 345 346 345 343 342 342 342 342 342 341 342 339 337 341 341 340 341 344 346 346 346 346 346 345 346 344 346 346 346 345 346 345 344 343 343 343 343 342 342 343 343 343 342 341 341 341 341 340 340 340 339 337 337 336 337 337 338 338 324 319 320 321 321 328 335 321 318 336 332 335 334 333 333 333 331 330 330 332
337 337 337 338 343 342 343 344 345 345 344 342 342 342 342 342 343 342 338 339 342 341 340 341 344 346 346 346 346 345 345 346 345 344 347 345 344 345 344 344 343 343 342 341 341 341 341 343 343 342 342 341 341 341 340 341 340 338 336 336 336 335 337 339 330 323 319 320 321 323 321 325 319 324 333 332 331 332 331 330 328 327 328 329 331
337 337 337 338 339 341 342 342 343 344 344 343 343 343 344 343 344 341 339 340 342 341 340 341 346 346 346 346 345 345 345 345 345 344 345 345 344 345 344 343 343 342 342 341 341 340 340 340 342 341 341 341 341 341 341 340 340 337 335 334 335 334 334 333 323 321 320 320 322 325 319 318 320 338 332 331 329 329 330 330 330 330 329 329 329
336 337 337 338 338 342 341 341 341 342 343 343 343 344 344 344 343 340 338 341 341 341 340 342 345 345 345 345 345 344 344 345 343 344 344 344 345 343 344 342 342 342 341 341 341 340 339 339 339 340 340 340 340 340 340 340 338 336 333 333 332 332 332 330 327 321 321 321 324 319 318 322 319 336 332 333 333 334 336 336 334 333 333 332 331
336 336 337 338 339 339 342 339 340 340 341 342 343 343 344 344 343 340 340 341 341 340 341 344 345 345 345 344 345 344 344 344 343 342 342 343 342 343 342 342 342 341 341 341 340 339 339 338 338 338 338 339 339 339 339 339 337 335 332 332 330 329 327 321 322 319 321 322 321 325 320 320 335 336 335 335 335 335 335 333 335 335 333 333 332
335 336 337 337 337 338 339 341 339 338 339 339 340 342 344 344 343 342 343 343 342 341 344 345 345 345 345 345 344 344 344 344 342 341 340 341 341 343 343 343 342 341 340 340 340 339 338 337 337 337 337 336 337 338 339 338 336 334 331 331 329 327 326 322 317 318 318 320 320 323 321 322 338 337 335 336 336 336 334 333 334 335 334 334 333
336 335 337 336 336 336 337 338 337 338 337 338 338 339 342 343 342 343 344 344 344 344 345 345 344 344 344 344 344 345 344 343 343 341 340 341 343 341 342 343 341 341 340 339 339 339 338 337 336 336 335 335 336 337 338 336 334 332 332 330 328 327 325 322 316 313 316 321 324 322 321 322 334 338 336 336 335 335 334 334 333 335 336 335 335
335 336 336 336 336 335 336 335 336 336 335 336 336 337 339 341 341 342 343 344 344 344 343 343 344 343 343 342 343 343 344 343 342 340 340 340 338 337 339 342 341 341 340 339 340 339 338 337 336 335 335 335 337 337 336 334 332 331 330 327 324 324 323 320 313 313 316 325 319 321 322 331 339 337 336 336 336 336 335 333 333 333 334 336 336
336 336 338 337 335 334 335 334 334 333 334 334 333 335 336 338 339 340 341 342 342 341 340 340 340 340 340 340 341 342 341 340 339 338 337 337 338 336 336 340 340 340 340 339 339 339 338 337 336 335 335 335 336 337 335 332 331 330 326 322 321 321 321 316 310 309 313 311 312 316 317 333 339 337 334 335 336 336 336 334 332 331 333 334 332
336 337 338 337 335 334 333 333 333 333 335 334 333 334 335 335 336 338 338 339 339 338 336 336 336 336 336 336 337 338 338 336 337 335 335 336 338 332 334 337 341 340 339 339 340 339 338 337 336 336 335 334 336 336 333 331 331 327 323 321 319 317 311 309 309 309 309 312 319 310 323 335 337 335 333 333 333 334 334 334 334 335 334 334 335
335 336 337 338 337 333 332 332 331 332 336 337 336 335 336 335 334 335 335 335 336 335 333 332 332 331 331 332 334 335 333 332 333 330 333 332 329 328 331 335 338 340 340 340 339 339 338 337 336 336 335 335 336 335 332 331 331 326 322 319 318 313 310 310 310 313 310 309 314 312 328 332 333 333 334 334 333 333 332 331 332 333 333 334 334
334 334 336 338 338 336 332 331 330 331 336 338 336 334 336 335 332 333 335 334 334 333 333 334 337 333 330 333 333 333 331 330 328 333 326 327 326 327 330 333 335 336 339 340 339 339 338 338 337 336 335 335 334 327 326 330 329 327 322 318 313 312 312 311 311 308 311 308 312 314 328 330 332 332 333 334 334 333 333 333 333 332 332 333 333
333 334 335 337 338 337 336 333 330 330 333 337 338 336 336 334 332 332 332 332 335 335 332 334 333 333 331 332 333 331 330 329 328 329 326 324 325 325 328 330 333 334 337 338 337 338 339 338 337 337 336 335 327 321 322 319 317 323 321 315 314 314 314 313 310 307 310 309 310 321 326 329 331 333 334 333 334 334 334 334 334 334 333 333 333
334 334 334 336 337 337 337 336 332 328 330 335 337 337 337 336 336 335 333 332 334 335 335 334 332 331 331 331 332 329 328 328 332 333 333 325 324 323 324 326 329 331 333 335 335 335 336 337 335 335 335 328 322 320 322 319 320 319 320 319 318 317 316 316 313 311 308 310 311 323 327 329 331 332 332 333 332 333 333 334 334 334 334 334 334
335 337 336 336 336 337 337 337 336 333 330 334 336 337 337 337 337 337 336 335 336 336 336 336 333 331 332 331 330 328 327 326 326 327 325 322 319 319 319 319 321 323 328 324 325 327 329 325 325 327 322 325 325 324 322 320 319 320 320 320 319 319 318 316 315 312 312 311 312 321 325 329 331 331 332 332 332 332 333 333 334 333 333 333 334
331 334 335 335 336 338 338 337 337 335 334 334 336 336 336 336 336 336 335 335 335 335 335 335 334 332 331 330 327 326 325 325 324 324 323 320 318 318 318 317 317 318 320 322 320 320 321 322 322 321 319 321 323 322 324 323 321 320 321 320 319 319 317 316 314 312 313 312 313 321 323 326 328 330 330 331 331 332 332 333 333 334 334 334 333
326 328 330 333 336 336 334 337 337 336 335 334 334 335 335 336 336 335 335 334 334 334 333 333 333 332 329 328 327 325 324 323 323 322 321 319 319 317 317 316 319 318 316 319 318 316 318 320 320 322 321 321 321 319 321 321 321 321 320 319 319 317 316 315 312 312 313 313 315 320 322 326 328 331 331 330 331 331 332 333 334 334 333 333 333
319 323 328 330 331 333 335 337 336 336 335 335 334 334 335 335 335 334 334 333 332 332 332 331 331 331 329 327 326 326 324 322 322 321 319 316 318 317 316 315 316 316 316 318 319 314 314 314 315 316 322 324 324 322 322 322 320 318 317 316 315 314 313 313 313 313 313 314 314 317 320 324 327 330 331 332 331 332 332 333 334 333 333 332 333
313 316 320 322 323 329 334 334 335 336 336 335 333 334 334 334 333 333 333 332 332 332 331 330 329 329 328 325 323 324 322 322 321 320 317 317 316 315 315 316 315 317 317 316 318 317 316 315 316 317 319 322 322 322 321 320 318 316 314 313 311 311 312 312 313 313 313 314 314 316 319 322 324 327 331 332 332 332 333 333 333 333 333 333 333
309 311 314 315 314 317 318 319 322 334 335 334 334 333 333 333 332 332 333 330 331 332 330 329 329 328 327 325 323 323 323 322 320 317 318 316 314 314 314 315 316 316 316 318 317 317 318 314 313 314 315 317 319 320 318 318 318 316 312 312 313 314 314 313 313 314 314 314 315 315 318 319 322 324 327 330 332 332 331 331 332 333 333 333 333
305 306 309 311 311 312 314 314 315 323 334 333 333 332 332 333 332 332 332 331 331 331 329 328 327 328 327 323 323 322 322 321 320 319 319 317 316 315 315 315 314 314 316 318 315 317 316 317 317 317 316 315 316 316 314 315 314 313 312 311 313 313 313 313 313 314 314 315 315 315 315 318 319 322 325 328 331 332 332 331 331 331 332 333 332
301 302 305 307 308 310 312 312 313 316 325 334 332 332 331 332 332 332 332 332 331 330 329 328 326 327 327 326 324 323 323 322 321 320 320 318 317 316 315 315 315 314 315 316 316 316 316 316 314 314 315 313 314 311 310 311 312 313 312 311 312 312 312 313 313 314 314 314 314 315 314 315 318 319 321 325 328 330 331 331 331 331 332 333 333
299 300 302 303 304 306 309 309 311 314 317 321 332 333 332 331 330 331 332 331 331 330 329 328 327 325 325 325 325 324 322 322 321 321 319 319 319 317 316 315 316 316 316 316 316 314 313 313 314 312 312 311 310 313 310 311 311 313 313 313 313 313 313 313 313 313 313 314 314 314 314 314 314 317 319 321 323 326 328 331 331 332 332 332 333
297 298 300 300 303 304 306 307 309 311 313 317 320 330 332 332 330 330 330 331 331 330 329 329 327 327 325 325 325 324 322 322 321 320 319 319 319 318 318 317 316 316 316 316 316 315 315 314 315 311 314 313 313 313 313 313 313 313 313 314 313 314 314 313 313 314 314 314 314 314 314 314 314 314 314 318 319 321 325 328 330 331 332 333 333
296 297 297 299 300 301 304 305 307 309 311 313 316 321 330 332 331 330 329 328 329 329 329 327 327 327 327 326 324 323 323 323 322 321 319 319 319 318 318 318 318 316 315 315 316 315 315 315 314 314 313 311 311 313 313 313 313 314 314 313 314 314 313 313 314 313 313 314 314 314 314 314 314 314 315 315 317 319 322 324 327 330 331 332 333
295 295 296 298 298 300 301 301 303 306 309 311 314 318 324 330 331 332 330 328 327 327 327 327 327 327 326 326 325 325 324 324 322 320 319 319 319 319 319 318 318 317 316 314 315 315 314 314 314 314 313 313 311 312 312 312 312 312 313 313 314 313 313 313 313 313 314 314 314 314 314 314 315 315 314 315 315 316 320 322 325 328 330 330 331
294 294 295 296 296 297 299 300 301 304 307 309 311 314 318 324 329 326 323 322 323 322 324 326 327 327 326 327 326 325 325 324 323 322 321 320 319 319 319 318 317 317 316 315 315 315 314 314 313 313 313 314 312 312 311 311 311 312 312 312 313 312 312 313 313 314 314 314 314 314 314 314 314 314 315 315 315 315 317 319 321 325 327 327 328
293 294 294 295 295 296 297 299 300 302 305 307 309 312 315 317 317 315 315 315 314 315 315 314 313 313 315 316 319 324 325 325 325 324 322 322 320 319 319 318 317 317 317 316 316 315 314 314 314 312 313 312 312 312 312 312 312 312 312 312 313 312 312 313 313 312 313 313 314 315 315 315 315 315 315 316 316 316 316 317 319 321 322 322 323
292 293 293 294 294 295 296 297 298 300 302 304 307 309 312 313 313 311 311 310 310 311 311 311 310 310 310 311 312 312 312 317 323 323 323 323 321 320 319 319 318 317 316 316 316 315 314 313 313 313 310 312 314 313 313 312 312 311 311 312 312 312 313 313 312 313 313 314 315 315 315 315 315 315 315 315 315 315 315 315 315 315 316 318 320
291 292 293 293 293 294 295 295 297 299 300 302 304 305 307 308 307 307 306 306 307 307 308 308 307 306 307 308 308 307 308 309 310 314 319 322 322 321 320 319 318 318 318 317 317 317 316 313 313 313 312 311 310 312 311 310 309 309 310 311 311 312 313 313 313 313 314 315 315 315 315 316 315 315 315 315 315 315 315 315 314 315 315 316 317
290 290 290 291 291 292 292 292 295 297 298 298 300 302 303 304 305 304 302 304 304 304 304 305 305 305 305 305 304 305 305 305 307 309 310 312 315 319 321 320 319 319 318 318 319 318 318 317 316 314 314 312 312 310 309 308 308 311 311 311 313 313 313 313 314 314 314 315 315 315 315 315 315 315 316 314 314 315 315 315 315 315 315 315 316
288 289 289 289 290 291 291 292 293 295 296 298 298 300 302 303 303 303 302 301 301 301 301 303 304 303 303 303 303 303 302 302 304 306 307 308 309 311 312 315 318 320 319 319 319 317 318 317 316 315 314 315 314 311 310 311 307 308 310 312 313 314 314 314 313 314 314 314 314 314 315 315 315 315 315 314 314 314 315 315 314 315 315 315 315
287 288 289 289 289 289 290 291 292 293 294 296 297 298 300 302 302 302 302 300 302 302 301 302 303 301 301 301 302 301 300 300 301 303 304 305 306 307 308 310 310 312 315 318 319 319 319 318 317 317 316 313 314 311 310 314 311 304 307 309 310 309 309 309 307 307 309 311 312 312 312 312 313 314 315 314 314 314 314 314 314 314 315 315 315
287 287 288 288 289 289 289 290 291 292 293 294 296 297 299 301 301 301 300 298 298 300 300 300 300 299 298 299 300 299 299 299 300 300 302 302 303 304 305 306 307 308 309 308 308 308 310 314 317 317 317 316 314 312 314 313 315 313 310 310 309 308 306 308 300 308 309 312 310 309 310 310 311 312 312 312 314 314 314 314 314 315 315 315 316
286 286 287 288 289 288 289 289 290 290 292 294 294 295 296 297 298 298 298 297 297 297 296 296 297 297 297 297 297 298 298 298 298 299 300 300 301 301 303 303 304 304 305 305 304 306 307 308 308 310 314 316 315 315 313 313 314 317 316 309 308 306 307 309 307 312 308 308 307 308 309 310 310 310 310 311 311 312 313 313 314 314 315 315 316
285 286 287 287 287 288 288 288 289 289 290 291 293 294 293 293 293 292 291 291 291 292 292 293 294 294 294 296 296 296 296 296 297 297 298 299 299 300 301 301 301 302 302 302 303 303 304 304 306 308 308 309 312 315 316 314 315 316 317 318 316 311 310 306 309 308 310 313 315 313 313 310 310 309 309 310 310 312 311 312 313 313 314 315 315
284 285 286 287 287 287 287 287 288 289 290 290 291 293 291 292 293 292 291 291 290 292 294 295 294 294 294 294 294 295 294 294 294 295 296 298 298 298 299 300 300 300 301 300 300 301 302 303 304 305 305 307 308 306 309 316 316 316 317 317 316 317 316 313 310 312 309 313 312 310 310 307 308 309 310 311 312 312 312 312 313 313 314 314 315
284 284 284 286 286 287 287 287 288 289 288 289 289 291 290 290 290 291 292 291 291 291 293 293 294 293 293 292 293 293 293 293 293 293 294 295 296 296 297 297 297 298 298 298 299 300 301 301 302 302 304 305 305 304 305 308 308 314 316 315 316 316 317 317 316 312 311 308 311 314 315 314 311 311 312 312 311 312 312 312 312 313 314 314 315
283 283 283 284 285 286 287 287 287 287 287 288 289 288 290 289 288 288 288 290 290 290 291 291 291 291 291 291 291 291 291 291 292 292 293 293 294 295 295 295 295 296 297 296 297 298 299 299 299 299 300 302 304 305 305 303 304 304 303 310 316 316 316 317 316 315 311 309 310 312 313 311 308 311 311 312 312 312 313 314 314 313 313 314 315
283 284 283 283 284 285 285 285 285 286 287 287 288 288 288 289 287 287 287 287 288 288 288 288 289 289 288 289 289 289 289 289 290 290 291 292 293 294 294 293 293 294 295 294 295 295 297 298 298 299 300 301 302 302 300 299 300 300 301 301 302 308 313 315 315 314 314 313 309 311 313 312 311 314 314 314 312 313 313 314 313 313 314 314 314
282 282 282 282 283 283 283 284 285 286 286 286 287 287 287 287 286 287 286 286 287 287 287 286 287 287 286 287 287 288 288 288 288 289 289 290 291 293 292 294 294 294 293 293 293 294 296 296 297 298 299 299 297 297 297 297 297 298 299 300 301 301 300 302 307 313 314 312 311 311 313 314 313 312 316 313 314 315 315 314 314 314 314 314 314
Wind_Speed
8 9 7 13 15 15 15 15 17 17 18 18 17 17 15 13 12 12 12 12 13 13 12 13 13 13 13 13 13 13 12 12 12 11 12 12 12 12 13 13 12 11 11 13 14 13 12 11 13 13 14 14 15 15 15 15 15 14 14 13 13 13 13 12 12 11 12 12 14 13 12 12 11 13 13 13 13 12 9 9 7 4 5 9 14
13 9 8 10 15 15 15 15 17 18 17 18 17 17 17 15 12 11 11 11 12 13 12 12 13 12 12 12 12 12 12 11 11 11 11 12 12 12 12 12 12 12 10 10 12 13 13 11 13 13 13 13 14 15 14 15 15 15 13 13 13 13 13 12 12 12 10 12 13 11 11 12 12 11 12 14 13 12 10 10 9 4 3 12 13
10 9 8 10 15 15 14 16 17 18 17 18 18 17 16 16 14 12 11 10 10 12 12 12 12 12 12 12 12 12 12 12 11 10 11 11 11 12 12 12 11 11 12 10 10 12 13 11 12 13 13 14 14 14 15 14 14 14 14 14 13 13 12 11 11 11 12 12 13 11 10 12 11 11 11 13 13 11 9 10 7 6 6 11 9
11 8 7 10 14 14 14 15 17 18 18 18 18 17 17 16 15 13 11 10 9 11 11 11 12 12 12 11 12 12 12 12 12 11 10 11 11 11 12 12 11 10 10 11 11 10 11 12 12 13 14 14 14 15 14 14 14 14 14 13 13 12 11 10 11 11 11 11 10 8 3 3 7 11 10 9 10 9 6 11 11 9 10 8 10
10 7 6 8 9 12 13 14 17 17 17 18 18 17 16 15 15 14 12 10 10 10 12 11 11 11 12 12 12 13 13 13 12 12 11 11 10 11 11 11 11 10 10 9 11 10 11 11 12 13 14 14 14 14 14 14 13 13 13 12 12 11 10 10 10 10 10 10 9 6 3 3 3 9 10 10 10 6 7 7 5 8 8 9 10
9 7 6 6 6 10 13 13 17 17 17 17 17 17 16 15 14 13 13 11 11 10 12 11 12 11 12 12 12 12 12 12 12 12 11 11 11 10 11 11 11 10 10 11 12 11 12 13 13 13 14 14 14 13 13 13 13 12 12 12 11 10 9 9 9 8 9 9 8 4 4 4 3 3 11 11 9 6 8 7 7 9 7 8 8
10 6 6 6 4 8 13 12 15 18 19 19 17 17 15 14 13 14 13 13 12 11 13 12 12 12 11 12 12 12 12 12 12 11 11 11 10 9 9 10 11 11 10 11 13 13 13 13 13 13 13 13 13 13 13 13 12 12 12 12 11 10 9 8 7 8 8 6 3 4 4 3 2 0 11 10 9 8 8 8 7 7 8 8 7
7 6 5 5 4 7 12 11 14 17 18 18 18 17 15 14 14 13 13 14 13 12 12 12 12 13 11 11 12 12 12 12 12 11 11 10 10 9 8 7 9 11 12 11 13 12 12 13 12 13 13 12 12 12 12 11 11 11 11 10 10 9 9 8 7 6 7 4 3 3 4 2 2 2 8 6 6 7 8 8 7 7 8 9 7
8 6 6 5 4 9 11 10 11 13 17 18 18 17 15 14 13 14 14 13 13 12 12 12 11 11 11 10 11 11 11 12 12 11 11 11 11 11 9 10 10 12 13 12 13 12 11 12 12 12 12 12 12 11 11 10 10 9 8 7 6 7 6 7 7 6 4 3 2 2 1 1 1 1 3 7 7 7 9 8 6 7 7 7 7
6 6 6 5 5 9 11 11 11 11 15 17 17 16 15 14 14 14 13 13 12 13 12 12 11 11 10 10 10 11 10 12 11 12 12 13 13 13 11 12 12 13 13 13 13 13 12 11 11 11 12 12 12 11 10 9 8 8 7 5 3 4 4 6 7 5 3 1 2 1 0 1 0 1 2 6 6 5 7 6 5 4 2 5 4
6 6 6 5 5 9 11 12 11 12 14 14 14 14 14 14 13 13 13 12 13 13 13 12 10 11 10 11 10 10 11 11 12 12 13 13 13 14 13 13 13 13 13 13 12 12 11 11 10 10 11 12 12 11 9 9 8 8 6 4 1 2 4 7 6 3 2 2 1 1 2 1 0 1 1 4 5 5 6 5 3 2 2 2 2
7 5 5 4 6 9 10 12 11 12 14 15 15 15 13 13 11 12 13 12 13 13 13 12 10 9 10 10 11 10 10 10 11 10 13 13 14 15 14 13 12 11 10 10 9 9 10 10 9 9 9 11 11 11 10 8 8 7 7 5 3 3 4 8 5 4 3 2 1 1 1 0 1 3 5 4 4 5 5 4 3 2 2 1 1
8 7 5 5 4 8 10 11 10 10 12 12 12 12 12 12 11 13 13 12 13 13 12 12 11 10 10 10 10 9 10 11 11 13 12 13 14 14 13 13 12 12 10 9 9 8 8 9 10 9 8 9 10 10 10 9 8 8 7 7 6 5 5 7 4 4 3 2 1 0 1 1 2 4 5 4 4 5 5 5 5 4 3 2 2
8 7 6 5 4 7 10 10 9 10 10 10 11 10 11 11 12 13 13 12 13 12 12 11 11 11 10 11 10 11 11 10 11 11 13 13 14 14 13 13 12 12 10 9 9 8 7 8 8 8 8 8 8 8 9 9 9 8 8 8 7 6 5 5 5 4 3 2 1 0 1 2 2 4 4 4 4 3 3 3 3 3 3 3 2
9 7 5 5 5 5 10 9 8 9 9 8 10 10 11 10 11 13 12 12 12 12 12 10 11 10 11 11 12 12 11 12 11 10 8 9 11 13 14 12 11 11 10 9 8 7 6 6 6 6 6 7 6 6 7 9 9 9 8 8 7 6 5 3 3 3 3 1 1 0 2 2 5 4 3 3 3 2 2 2 4 4 3 3 2
4 6 5 5 5 5 6 7 9 9 8 8 9 9 10 11 11 12 10 11 12 13 11 10 11 10 10 11 11 12 12 13 13 11 11 11 13 11 11 12 12 11 10 8 7 6 5 5 5 5 6 6 6 5 5 7 8 10 9 7 7 7 5 4 3 2 3 2 0 0 1 2 7 4 3 2 3 3 3 3 3 2 3 3 3
4 4 6 5 5 4 5 4 6 9 9 7 6 7 10 11 10 10 9 9 10 10 9 10 10 10 9 8 9 12 12 13 13 12 11 10 9 7 7 8 10 10 9 8 7 7 6 6 5 5 5 5 5 5 6 7 7 8 9 7 6 6 6 5 3 1 1 1 0 1 1 2 5 6 3 4 4 4 5 4 5 5 5 5 5
3 4 5 4 4 4 4 4 5 5 5 5 5 7 8 9 10 8 8 8 8 7 7 8 8 10 8 8 7 9 11 11 12 11 10 10 8 8 8 8 9 10 10 9 8 8 7 6 5 5 5 5 6 5 7 7 6 6 7 8 6 6 6 5 3 1 1 1 0 1 2 5 6 5 5 6 5 6 6 6 6 6 8 6 7
2 2 3 4 3 3 4 4 4 4 5 4 3 4 7 7 8 7 7 7 8 7 7 7 7 7 9 7 7 7 8 9 10 10 9 9 9 8 8 7 9 9 9 9 9 8 7 5 5 5 5 5 5 4 5 6 7 6 6 6 7 5 5 4 3 2 2 1 1 1 2 5 6 7 7 6 6 7 8 8 7 7 6 7 8
2 2 3 2 2 3 3 4 4 4 4 4 3 3 5 6 7 7 8 8 8 8 8 8 8 8 8 8 7 4 6 6 8 7 10 9 9 7 7 7 8 9 9 10 9 8 7 6 6 6 5 5 5 5 5 5 5 6 6 6 6 5 3 2 2 2 2 1 0 1 4 5 7 8 9 8 8 8 8 9 8 9 9 9 10
2 2 2 2 2 2 2 3 3 3 3 4 3 3 3 6 5 7 8 9 9 9 8 8 8 8 8 9 4 3 4 3 4 4 8 6 8 8 8 7 7 7 8 8 9 7 8 7 7 7 7 7 6 7 5 5 4 7 6 6 5 3 2 2 1 0 1 2 3 3 5 6 7 8 9 9 9 9 9 9 10 10 11 11 11
4 2 2 2 2 2 2 2 2 2 3 3 2 2 2 4 3 3 4 6 7 7 6 5 6 4 8 7 5 2 3 4 4 4 3 4 6 8 8 7 7 7 7 8 8 8 8 8 8 8 8 5 7 4 3 3 3 7 7 5 2 2 1 1 0 1 1 2 2 4 6 7 8 8 9 10 10 11 11 11 11 11 12 12 12
6 4 3 3 2 2 2 2 1 1 2 2 2 2 2 2 2 2 2 4 4 4 4 4 4 4 4 3 4 5 4 4 5 4 3 6 6 8 8 7 7 7 7 8 7 8 8 9 9 8 6 6 5 3 3 1 1 4 4 2 1 1 0 1 1 2 3 1 2 5 7 8 9 10 11 12 11 12 13 13 13 13 13 14 14
5 6 5 3 4 4 4 2 2 2 2 2 2 2 1 1 2 2 1 2 2 3 3 3 4 4 4 5 4 3 4 4 5 7 5 4 5 6 6 5 6 7 8 5 6 7 7 8 7 8 6 4 4 3 2 1 1 0 0 0 0 1 1 1 2 3 3 3 3 7 8 9 10 11 12 12 13 13 13 13 14 14 14 14 14
3 4 4 6 4 5 5 5 4 4 3 3 3 3 2 1 1 2 1 1 2 2 3 4 4 4 4 4 4 4 4 4 3 4 4 3 3 3 3 2 2 3 4 3 3 3 3 3 2 3 3 4 4 3 3 2 1 1 1 1 1 2 2 3 3 3 4 4 4 8 9 10 11 12 13 14 14 14 14 14 15 15 16 16 16
8 2 3 4 4 2 2 3 5 5 4 4 4 3 3 3 3 2 1 1 2 2 2 3 4 4 4 4 4 5 5 5 4 5 5 4 4 3 3 3 3 3 2 3 2 2 2 2 3 3 3 4 5 4 5 5 4 3 2 3 2 3 3 3 4 4 4 4 4 8 9 10 11 12 13 14 15 15 14 14 15 15 16 16 16
7 7 7 7 5 1 3 2 3 4 7 5 4 4 4 3 2 2 2 2 1 3 3 2 3 3 4 4 5 5 5 5 5 5 5 4 4 3 3 3 5 4 3 5 4 3 3 3 3 4 3 4 4 3 3 3 3 3 3 4 4 4 4 4 4 5 5 5 5 8 9 10 11 12 13 14 15 15 15 15 15 15 16 16 17
12 12 10 6 6 7 3 2 3 3 2 2 2 4 4 3 3 2 2 2 2 3 3 2 2 3 4 4 4 4 5 5 5 4 4 3 4 3 3 3 4 4 3 4 5 3 3 3 3 3 3 4 4 5 5 5 5 4 4 5 4 4 4 5 5 4 5 5 5 7 8 11 11 12 13 15 15 15 16 17 17 17 16 16 17
14 12 11 13 13 11 8 9 4 7 6 5 5 3 3 3 2 2 3 1 3 3 2 1 2 2 2 3 3 4 3 4 4 4 3 3 2 3 3 4 3 4 4 4 5 5 5 5 5 5 4 4 4 4 3 3 3 3 4 4 4 4 4 5 5 5 4 5 5 7 10 10 12 12 14 15 17 16 17 17 17 17 17 17 18
13 12 13 11 11 10 11 11 13 5 1 4 2 3 3 4 4 4 3 2 4 3 2 3 2 2 3 2 3 2 4 5 4 3 4 4 3 3 3 3 4 3 4 5 4 5 5 4 3 4 4 4 4 4 4 4 4 4 3 4 5 6 5 5 5 5 5 5 6 6 10 11 12 13 14 15 16 18 18 18 18 18 19 19 19
12 14 12 11 11 11 11 12 11 11 3 4 4 3 4 3 4 4 4 4 4 4 4 4 4 4 4 3 3 3 4 4 4 5 4 4 4 4 5 3 3 3 4 5 3 4 4 5 5 5 5 5 6 5 4 5 5 5 4 4 6 5 5 5 5 5 6 6 6 6 7 11 12 12 14 15 16 17 18 19 19 19 19 19 19
12 13 10 10 11 12 10 11 11 9 9 3 5 5 5 5 4 4 6 6 6 6 6 6 7 6 6 5 5 5 5 5 5 5 5 5 5 5 4 4 5 4 4 4 5 4 4 3 2 3 3 3 4 3 2 3 4 5 4 4 5 5 5 5 5 6 6 6 6 6 6 7 11 12 13 14 16 17 18 19 20 20 20 20 21
8 10 11 11 13 12 10 11 11 9 10 10 3 3 3 4 5 5 5 6 6 6 7 7 6 6 6 7 7 7 6 6 6 5 5 5 5 5 5 5 5 5 5 5 4 3 2 3 3 2 2 2 3 5 3 3 4 5 5 5 5 6 6 5 6 6 7 7 7 7 6 6 7 10 13 14 15 16 18 19 19 20 20 21 21
10 9 12 14 11 8 7 8 10 10 11 8 8 5 4 4 4 5 5 5 5 5 6 4 3 4 4 4 6 5 5 5 5 5 4 5 5 5 6 6 6 5 5 4 5 5 5 4 5 3 5 5 5 5 4 5 5 5 5 6 5 6 6 6 6 7 6 7 7 7 7 6 7 7 8 12 15 14 17 18 19 19 20 21 21
10 12 14 12 12 10 9 7 10 8 11 11 10 8 6 1 2 4 3 2 2 2 2 1 2 2 2 2 4 4 2 3 4 6 5 5 5 5 6 6 5 5 5 5 5 5 5 5 4 5 5 4 5 5 5 6 5 6 6 5 6 6 5 7 6 6 7 7 7 7 7 7 7 7 7 8 10 15 16 17 18 19 20 21 21
14 12 11 12 13 13 13 12 12 11 8 10 9 8 8 5 4 2 2 2 2 2 2 2 1 1 1 1 2 2 1 4 5 3 4 5 5 6 6 5 4 4 5 4 3 5 5 5 5 4 5 6 5 6 5 6 5 7 6 6 7 6 7 6 7 7 7 7 7 7 7 7 7 7 8 8 8 8 12 15 17 19 20 20 21
13 14 13 12 13 14 14 16 16 14 11 10 12 11 10 10 11 14 15 15 13 12 11 10 8 3 2 3 1 2 4 4 2 4 5 4 4 5 5 4 3 4 4 4 4 5 5 5 5 5 5 6 5 6 6 6 7 7 7 7 7 6 7 7 7 7 7 7 8 7 7 8 8 9 8 8 8 7 11 16 16 18 19 19 19
13 14 14 13 12 12 13 13 12 11 11 10 10 9 10 13 13 11 13 12 13 11 10 12 12 12 13 13 14 9 5 2 2 3 3 4 4 5 4 4 4 4 4 4 6 5 4 4 6 4 5 5 6 6 7 6 6 6 6 7 7 6 7 7 7 7 7 9 9 9 9 8 8 9 8 8 8 8 8 11 16 17 18 18 18
12 14 14 14 12 12 11 13 13 13 12 11 9 8 10 11 10 12 13 13 12 12 12 13 12 12 13 14 14 13 15 15 10 3 2 2 3 5 5 3 3 4 4 5 5 5 4 5 6 6 4 6 7 6 6 6 6 6 6 8 6 7 7 7 7 7 7 9 10 10 7 9 8 8 9 8 8 8 9 8 7 7 9 15 17
13 13 15 15 15 14 13 12 13 11 9 10 9 10 10 11 12 12 15 13 12 12 12 12 11 13 13 13 13 14 14 12 12 14 12 6 3 3 3 2 3 3 4 6 6 5 7 6 8 7 6 5 5 6 5 6 5 5 8 8 8 9 9 9 8 8 8 8 9 7 8 8 8 9 8 8 7 8 9 9 7 8 8 10 15
14 15 15 16 16 14 14 16 13 12 11 10 11 11 11 9 11 13 12 10 11 11 13 12 13 12 13 13 15 13 14 14 15 13 12 11 11 9 6 3 1 1 4 6 5 5 5 5 5 4 7 6 5 5 4 2 3 6 6 8 8 7 9 9 9 8 8 8 6 7 8 8 9 9 8 6 8 9 9 9 8 7 8 7 9
15 15 16 15 13 14 15 13 12 12 13 11 8 10 9 8 8 7 9 10 11 13 13 12 12 12 13 14 14 14 14 14 14 13 13 13 12 10 11 12 10 4 3 3 4 4 5 5 4 4 5 7 6 4 4 4 2 5 7 8 7 6 8 9 8 8 7 6 7 8 9 8 8 7 6 7 8 8 8 8 7 8 7 7 7
13 14 13 14 14 13 12 11 12 12 13 12 10 10 7 9 9 8 8 9 10 10 10 10 10 11 13 14 13 13 13 14 14 14 13 13 12 11 11 10 11 11 11 9 7 6 5 5 4 6 7 3 5 2 4 7 6 2 2 4 7 10 3 3 3 5 6 7 7 7 7 6 9 8 7 6 7 7 6 6 7 7 8 8 8
13 13 14 14 12 13 12 12 11 11 11 12 12 9 9 7 8 9 10 11 9 9 10 11 11 13 15 14 13 13 13 13 14 14 13 14 13 12 11 11 11 12 10 11 13 15 16 13 10 7 6 8 4 5 5 7 6 2 5 4 3 3 13 6 2 6 8 9 6 7 5 7 7 6 5 6 7 6 6 5 8 8 8 9 8
13 13 13 12 9 13 12 11 10 11 11 13 12 9 7 7 5 8 8 8 9 9 11 14 12 11 12 15 14 13 13 13 13 14 12 12 13 12 12 11 11 12 12 12 12 11 11 11 14 14 12 8 10 6 3 5 7 7 6 2 4 2 5 10 6 12 4 4 7 7 6 7 7 7 5 7 6 6 7 7 7 7 8 9 9
12 11 11 11 12 11 12 11 10 11 11 12 12 11 11 12 10 12 14 13 13 14 14 11 12 13 12 9 11 12 13 13 13 13 12 12 13 14 12 13 13 12 12 10 10 11 13 13 13 11 12 15 12 10 10 4 7 8 9 9 7 8 8 5 6 12 0 7 9 7 8 6 6 5 5 6 6 7 6 7 6 7 8 8 8
10 9 9 11 12 11 11 10 10 10 10 11 12 10 12 12 13 12 11 10 10 8 7 8 9 7 6 8 8 10 12 13 13 13 13 13 13 13 12 11 11 11 11 11 12 12 10 12 12 13 12 11 14 13 15 12 4 5 8 10 10 9 8 7 8 8 14 7 7 4 6 6 7 7 8 8 8 6 6 6 7 8 7 7 7
7 8 9 9 11 12 11 11 10 11 11 10 12 11 10 10 11 11 10 10 9 6 5 5 5 4 5 7 5 7 10 10 9 11 12 12 11 13 13 12 12 12 11 11 11 10 9 10 11 11 11 12 13 13 11 13 14 11 5 9 9 11 10 9 10 10 11 13 19 4 8 6 7 8 9 9 7 8 8 7 8 7 7 8 8
9 9 8 8 8 9 11 11 12 11 11 13 11 12 11 11 10 9 10 8 8 7 6 6 6 5 5 4 9 9 10 11 11 11 11 12 11 11 13 13 13 12 10 10 11 12 13 13 15 15 15 12 11 11 10 14 14 12 16 13 10 8 8 9 10 8 8 9 14 15 16 4 5 7 7 7 8 8 9 9 9 9 8 8 8
7 7 7 7 8 9 11 12 12 10 10 12 11 12 11 9 10 12 12 10 8 7 7 8 8 8 10 10 9 9 9 10 11 11 11 10 11 10 10 11 10 10 9 11 12 13 12 12 12 12 11 12 11 12 13 12 10 12 11 10 14 14 12 8 7 9 10 11 13 14 14 14 15 12 6 7 8 9 9 9 8 8 8 8 8
6 6 7 8 8 9 9 12 11 10 10 11 11 11 10 10 10 10 11 11 10 9 9 9 8 10 11 11 10 10 9 10 9 10 11 11 10 7 7 5 5 6 8 10 11 11 10 11 11 11 13 14 13 13 13 12 11 13 14 13 12 11 11 14 17 13 10 8 9 11 13 14 13 15 14 5 8 8 8 8 9 8 9 8 8
Wind_Direction
187 171 169 164 163 162 169 166 158 156 147 144 141 138 136 137 135 129 126 133 136 134 140 140 134 136 137 130 125 122 121 120 121 120 119 122 123 122 123 123 123 123 122 127 119 112 106 109 112 111 107 107 107 106 105 103 101 103 105 105 105 102 93 91 83 90 102 110 111 105 103 97 94 91 90 96 94 73 63 67 57 57 73 91 84
170 171 167 164 167 166 170 166 160 160 152 147 144 140 138 137 136 134 131 131 142 140 139 142 139 139 138 134 127 126 126 126 127 127 127 128 128 127 128 130 131 126 123 122 122 119 118 124 117 113 110 108 106 107 105 104 105 106 108 108 102 98 99 73 56 54 87 113 105 100 93 97 99 96 97 99 96 80 70 72 69 74 112 89 89
151 162 164 167 170 166 166 167 157 161 159 150 147 143 140 139 138 138 134 133 144 146 142 145 145 144 142 136 134 134 132 132 133 133 133 135 135 133 131 131 132 135 132 122 119 121 125 119 112 111 109 107 107 107 104 105 107 108 109 107 103 103 87 73 66 65 61 73 98 104 95 98 97 105 108 105 100 93 90 88 88 79 82 80 75
150 162 162 169 165 162 164 166 158 162 164 154 148 144 143 142 140 140 139 140 147 151 146 148 149 147 143 139 140 141 139 139 137 139 139 139 138 137 136 134 134 136 130 131 119 116 115 116 117 109 107 107 108 104 105 107 108 109 109 108 105 98 89 78 74 70 67 67 64 51 28 50 108 117 112 98 93 98 116 111 105 100 95 96 92
150 154 160 162 159 163 167 166 153 162 162 156 148 147 146 145 142 142 145 149 152 161 149 153 152 151 146 144 146 145 144 143 144 143 142 139 137 139 140 137 133 128 129 125 124 119 117 116 109 108 107 107 104 104 106 108 108 110 110 108 106 104 98 84 80 73 71 70 62 56 35 52 65 114 118 114 111 96 48 38 69 106 100 100 104
146 150 153 150 156 165 169 167 150 155 158 156 151 150 150 151 151 148 151 158 158 165 157 154 157 153 149 148 149 148 147 147 148 145 144 141 139 142 145 143 137 129 127 133 125 124 117 113 110 105 104 104 103 104 106 107 109 110 110 108 108 109 103 92 84 78 75 71 65 50 42 43 44 95 112 114 117 124 116 105 83 91 93 86 89
143 145 145 145 147 168 169 170 158 160 160 157 156 156 158 160 154 152 157 161 160 167 165 158 161 151 154 152 153 154 151 151 151 150 146 146 143 139 138 145 138 132 126 127 129 125 114 110 107 105 103 103 105 108 106 106 109 110 110 108 107 107 108 99 86 80 79 73 69 61 52 34 18 322 111 115 119 117 130 130 119 107 109 98 88
137 142 141 137 146 170 167 167 157 162 160 160 157 160 161 160 158 156 164 168 160 168 171 161 169 154 154 160 161 159 156 155 155 152 149 133 116 117 127 124 138 131 126 124 118 116 112 109 106 105 102 105 110 111 111 112 111 111 109 105 102 106 111 111 100 90 85 79 61 68 64 34 354 352 113 107 112 119 114 100 91 96 100 85 63
144 141 133 136 151 164 160 160 162 164 161 163 163 162 167 164 161 167 172 167 162 165 177 167 167 156 153 164 160 161 162 159 158 157 147 138 132 126 133 128 142 134 130 127 124 124 117 114 109 106 106 106 112 115 116 120 120 118 112 107 110 119 120 124 124 105 84 84 71 69 55 17 338 330 130 117 107 84 71 58 61 81 79 71 68
141 137 134 138 154 162 155 157 164 170 170 166 168 168 170 166 168 172 172 167 170 167 176 175 159 159 157 161 162 162 167 164 162 160 153 143 141 133 130 135 135 137 134 135 134 133 127 121 119 115 113 111 112 114 117 119 119 116 112 110 133 174 178 156 147 124 114 104 111 78 270 250 327 337 280 112 113 108 87 93 91 45 42 83 85
137 136 136 139 155 158 156 157 166 170 174 175 175 174 172 171 172 172 167 172 174 168 173 177 167 160 163 164 165 167 169 161 168 167 154 150 149 141 139 136 135 136 137 137 138 135 131 129 124 122 121 118 115 115 115 116 114 98 91 86 102 206 188 175 151 133 133 143 156 225 286 188 314 305 219 125 123 113 105 108 107 83 80 125 87
138 132 137 142 156 156 158 159 166 171 175 175 175 178 172 168 174 172 168 179 176 167 173 185 166 165 171 165 167 167 160 164 161 163 155 154 157 146 149 136 131 127 125 124 125 128 134 134 133 130 127 124 123 120 117 113 98 90 79 71 73 98 139 149 135 147 150 155 169 265 306 250 226 258 132 152 145 144 148 158 174 175 166 147 156
142 137 138 142 145 158 158 160 168 172 174 176 175 174 166 169 178 172 176 176 181 168 180 187 162 174 168 162 166 162 164 160 164 163 155 157 152 148 146 142 137 130 133 132 133 135 135 143 144 142 138 131 127 123 120 114 100 87 73 61 62 83 110 129 135 139 149 159 186 298 297 254 254 247 134 148 170 170 173 173 161 156 142 141 148
142 141 140 140 143 155 156 157 164 168 174 173 173 168 164 176 173 171 178 178 177 173 186 190 174 174 165 164 160 159 169 149 161 156 156 156 153 150 145 144 144 138 138 141 140 142 145 147 153 158 158 148 138 123 123 118 107 91 72 62 59 67 88 113 128 135 143 159 183 262 263 268 259 249 159 165 186 202 180 187 175 155 157 148 162
145 142 139 136 143 151 153 153 157 163 173 171 170 170 168 174 171 171 180 178 174 182 189 188 175 168 165 164 161 161 157 143 147 139 145 152 147 153 152 148 151 141 146 149 143 142 143 153 166 173 175 163 157 141 127 121 114 100 79 63 62 61 81 105 113 129 139 155 186 258 253 290 272 231 174 188 216 192 254 218 195 202 177 203 179
129 136 131 132 139 149 150 153 155 163 169 172 175 172 170 165 167 172 179 175 178 187 191 177 172 166 168 164 164 155 148 143 148 152 144 149 167 164 158 155 149 147 153 155 148 143 151 159 177 189 193 190 187 158 126 112 110 102 91 69 60 67 65 83 94 109 137 142 228 253 290 295 290 272 224 229 259 253 250 242 272 274 262 229 251
128 124 133 136 137 144 146 145 153 158 160 167 172 170 162 162 163 178 179 173 183 191 187 176 171 169 163 166 169 157 154 156 152 157 153 166 164 157 142 145 153 148 152 160 159 157 165 171 178 193 208 195 192 167 116 97 97 100 96 81 63 65 66 79 76 67 90 100 92 337 300 286 297 268 257 266 264 261 268 265 256 243 257 257 252
116 135 137 136 137 135 133 135 142 150 149 153 167 173 160 160 166 179 174 174 180 179 176 173 166 163 165 170 171 156 156 157 149 153 157 157 138 125 122 133 150 155 160 163 166 169 172 171 179 185 196 189 185 160 108 109 105 94 87 91 76 65 75 79 78 41 56 116 318 288 288 279 287 271 270 275 274 268 270 276 276 274 263 247 259
92 110 117 133 132 125 125 127 135 137 140 147 159 178 166 163 170 177 172 157 160 167 166 158 163 164 161 170 173 155 151 152 149 146 141 139 136 135 142 154 160 161 168 168 171 172 172 170 176 177 188 184 170 168 108 117 117 105 93 98 103 78 63 68 72 57 40 30 301 300 260 281 286 272 271 272 280 284 278 276 283 284 282 251 254
55 74 110 100 112 119 117 132 133 132 141 145 155 163 179 171 172 170 160 154 156 163 164 159 162 163 168 170 173 155 154 151 149 144 143 146 148 146 156 162 168 169 171 172 174 172 169 175 179 176 188 192 169 149 114 117 120 111 104 89 82 102 65 19 37 34 7 333 321 287 277 282 270 270 275 275 274 272 277 278 274 274 287 297 298
76 45 53 99 92 109 116 126 135 130 137 143 151 154 181 174 171 169 163 162 163 168 170 167 163 165 168 168 211 138 148 150 151 153 152 151 153 157 165 168 168 168 172 172 174 173 174 178 181 182 187 185 141 139 129 125 120 110 99 74 67 56 95 123 37 349 328 306 329 294 294 299 284 276 277 277 274 275 272 271 278 283 285 289 291
146 118 79 68 109 101 127 119 117 130 125 140 148 158 161 173 170 177 172 174 172 170 171 168 168 164 174 166 172 172 156 151 151 155 148 146 148 158 165 171 171 174 175 173 173 175 183 180 186 193 194 163 137 129 137 134 113 118 123 116 76 85 42 2 151 178 214 260 273 274 283 280 278 276 273 277 280 280 280 280 280 279 278 277 281
155 162 157 153 132 111 120 130 120 118 126 138 142 148 152 160 170 175 178 176 175 169 168 168 163 165 157 177 168 160 165 157 150 157 159 149 154 160 165 172 179 181 178 176 177 180 187 186 187 197 190 158 136 137 124 95 34 47 73 93 116 112 144 272 289 292 289 242 233 261 267 273 275 274 273 272 274 276 280 284 282 279 279 278 280
163 166 172 161 154 156 159 143 144 140 151 152 131 142 173 143 159 166 170 173 176 168 171 170 166 163 165 159 165 157 161 162 163 157 153 161 164 168 168 168 181 184 183 178 183 184 187 189 186 183 185 134 137 138 139 142 155 156 360 7 325 293 250 258 259 269 256 271 267 265 269 271 273 275 275 274 275 277 279 281 282 283 283 282 280
174 127 153 180 184 172 159 163 158 155 175 165 162 172 163 149 168 171 168 188 182 176 179 176 175 171 166 165 165 162 157 153 147 145 165 165 152 152 149 148 152 183 179 168 177 194 183 192 197 170 135 153 159 177 163 166 195 211 228 232 262 272 275 271 262 251 248 250 256 262 269 272 275 272 269 269 271 273 274 275 277 277 276 275 275
357 295 116 151 175 183 164 160 161 170 180 181 188 162 149 185 194 169 169 195 195 188 196 196 183 180 173 169 158 160 159 158 162 167 168 166 165 172 170 139 135 162 152 166 172 179 193 190 180 160 168 160 184 190 201 193 173 193 216 232 237 244 250 261 261 261 258 247 252 258 259 266 268 272 266 264 267 269 272 274 277 280 279 277 275
17 16 3 5 15 177 189 197 210 181 185 175 170 155 184 190 182 166 188 216 202 195 220 217 205 185 184 175 170 175 167 172 176 177 181 171 181 178 169 157 160 165 168 152 174 185 187 195 185 197 181 175 183 191 210 213 205 196 215 230 234 239 247 256 257 257 263 258 261 263 260 263 266 267 268 267 266 267 269 273 276 278 277 275 273
27 9 6 3 357 357 358 256 204 188 168 131 176 175 177 167 177 159 218 221 214 225 225 231 219 205 196 190 193 174 172 179 190 185 180 155 185 179 161 165 166 183 168 165 166 175 172 181 193 204 197 203 191 198 200 208 210 199 216 227 237 243 247 250 255 257 257 260 260 265 261 266 266 265 266 265 267 268 269 271 272 275 275 273 270
21 10 12 21 7 357 1 354 229 209 180 165 184 190 167 150 132 167 211 204 225 236 242 251 239 232 231 201 182 176 177 182 187 189 139 188 176 164 172 191 186 191 165 194 184 185 189 182 185 194 199 215 206 194 206 230 239 230 220 244 241 247 252 253 254 257 255 254 258 262 263 264 264 265 265 267 268 271 272 273 273 273 273 275 275
10 7 14 14 2 358 20 16 357 300 255 144 185 188 178 171 162 173 195 176 227 225 205 229 242 226 223 224 216 192 190 188 187 166 171 195 192 184 187 198 198 196 181 202 212 192 200 191 187 191 193 213 213 209 186 218 236 235 224 240 247 246 248 251 254 253 254 253 252 256 262 261 258 258 259 262 265 267 271 274 274 275 274 274 273
2 12 11 3 354 359 10 10 6 343 213 206 183 181 170 187 178 172 179 200 215 210 204 211 216 218 216 203 211 209 190 190 187 183 191 192 195 193 208 200 216 206 196 224 210 209 205 198 197 202 203 210 220 220 206 221 238 245 236 233 247 251 253 251 254 256 259 256 255 255 259 259 257 255 256 259 261 263 265 270 272 273 273 273 272
4 6 2 349 350 1 352 6 0 355 351 241 154 190 186 188 197 192 195 205 206 210 207 204 205 207 201 197 201 202 193 199 193 191 193 193 199 203 205 198 218 210 201 220 217 219 213 227 234 232 233 222 246 254 230 225 251 255 259 249 252 253 253 252 252 253 256 259 257 257 252 252 253 252 253 254 256 258 261 265 269 271 272 271 270
3 3 357 358 5 357 357 355 358 357 14 10 327 211 163 188 192 211 214 210 210 213 216 214 210 213 203 201 201 197 196 192 200 197 196 201 204 204 207 211 212 210 204 214 219 216 221 235 246 231 246 244 257 263 251 232 247 256 254 259 253 257 253 253 252 253 250 251 252 251 251 249 250 254 253 252 253 254 258 262 264 266 268 270 269
4 1 3 9 3 359 353 353 359 358 9 6 4 339 214 192 187 213 224 217 213 216 237 245 236 238 234 228 211 201 197 199 192 199 194 203 211 213 213 214 212 210 207 201 212 208 216 213 234 213 237 229 238 248 252 259 249 251 256 256 253 254 255 257 251 248 251 252 250 247 245 246 246 249 253 254 253 252 254 256 259 261 261 264 266
15 14 11 357 2 7 4 4 360 358 8 5 360 357 333 277 224 210 213 226 249 248 250 11 22 26 7 311 334 322 305 248 208 193 199 202 211 221 222 222 212 210 206 209 207 212 209 220 213 220 236 234 238 245 241 247 255 257 253 249 250 251 247 251 254 254 247 249 246 248 245 244 243 242 243 245 246 247 246 249 253 255 258 259 262
14 10 2 356 7 11 11 13 8 6 359 8 357 2 357 12 37 47 357 278 273 278 319 14 343 357 272 216 186 187 258 304 308 285 232 212 213 223 230 225 217 208 215 215 203 219 217 227 224 212 235 246 236 250 231 250 248 255 253 250 253 250 252 252 252 252 250 249 248 247 242 242 243 243 241 242 242 241 237 245 248 252 254 255 256
14 12 8 0 8 11 12 17 15 8 360 4 6 7 20 21 35 42 40 35 32 21 22 17 11 11 286 291 204 186 218 180 199 272 284 270 248 238 237 227 219 216 216 213 215 222 216 223 234 219 216 246 240 253 255 246 251 249 254 255 254 252 252 249 247 249 256 252 252 247 245 242 242 245 248 246 246 245 249 247 246 248 250 251 253
20 19 14 12 9 11 14 11 4 10 17 8 7 10 28 41 49 53 51 46 39 36 33 36 37 29 25 19 13 3 326 254 173 191 230 278 288 271 262 238 217 217 220 215 228 213 218 215 241 231 219 230 247 246 254 252 255 266 266 261 261 248 250 253 248 251 248 254 255 252 248 249 244 246 244 244 244 244 249 247 248 247 248 251 252
21 19 18 19 17 18 19 17 13 6 12 15 9 23 36 45 49 49 50 47 41 39 34 37 31 29 28 22 25 25 16 10 359 303 218 250 272 284 291 293 260 238 228 232 234 219 218 214 223 241 220 223 231 239 247 256 265 263 266 267 268 261 258 249 250 250 247 251 257 258 256 253 250 248 246 243 240 244 245 247 244 243 249 247 249
22 18 21 25 25 25 20 22 20 6 7 20 18 29 39 40 37 39 44 37 36 37 38 41 33 34 28 30 31 30 22 20 17 13 8 346 300 282 279 278 274 276 257 247 241 220 223 219 229 223 236 245 231 243 249 256 272 277 278 277 259 261 261 256 254 250 254 256 260 261 258 260 254 255 250 247 244 244 245 248 242 244 246 245 244
27 23 26 25 25 22 19 22 12 14 19 16 25 28 30 38 44 47 50 42 39 36 39 34 35 33 30 34 35 31 26 26 23 20 19 15 14 3 344 305 240 233 263 269 300 289 267 252 250 215 230 246 258 220 234 202 287 293 264 264 274 245 251 255 253 253 254 261 261 267 261 259 255 256 254 241 241 241 244 246 246 245 244 246 248
20 22 26 22 20 21 26 20 16 16 25 24 19 36 38 38 57 52 63 50 43 37 35 30 30 30 34 35 34 31 30 29 25 24 25 24 18 17 20 11 2 323 263 287 301 300 295 278 273 268 220 228 249 203 192 129 220 241 296 301 285 267 241 248 247 252 253 257 259 255 258 259 265 267 259 245 245 243 247 246 246 246 246 245 247
23 26 22 23 22 23 21 21 19 20 23 22 24 33 25 41 54 59 56 69 58 56 47 37 30 33 37 37 33 32 32 33 28 25 26 24 25 23 20 13 20 16 18 11 352 329 299 276 265 259 271 239 257 235 183 183 237 207 229 319 305 321 304 252 296 280 261 254 251 256 262 261 264 257 256 253 252 251 248 245 247 247 249 245 245
23 23 21 22 22 22 19 18 19 22 25 26 30 29 37 45 62 74 69 65 60 57 60 49 34 31 35 34 35 29 30 33 31 30 28 26 24 24 26 25 19 22 28 31 25 22 11 2 337 293 282 286 250 270 207 199 208 205 290 212 280 319 310 296 297 263 221 243 239 249 242 252 257 263 269 257 258 257 252 243 243 244 247 248 245
21 22 20 20 20 21 17 16 16 19 23 27 29 25 39 47 75 85 99 95 69 49 45 40 33 29 30 33 29 27 29 34 32 30 30 29 28 22 25 32 28 25 28 33 30 20 12 10 8 5 353 310 294 287 266 207 217 213 220 293 299 270 235 283 340 288 176 243 237 228 238 254 255 259 248 251 247 243 246 243 241 244 245 246 245
21 15 16 21 22 21 18 17 21 19 19 19 24 31 40 41 36 36 35 34 35 31 34 30 28 27 31 28 33 31 32 34 33 32 30 29 33 26 20 28 31 26 27 28 28 24 19 14 9 1 5 5 347 320 299 247 229 224 231 231 223 267 289 274 336 302 235 205 258 219 244 228 237 243 230 242 241 243 232 243 242 245 245 242 245
15 8 14 20 25 25 22 22 23 23 16 19 18 27 38 42 47 56 56 52 58 52 50 44 48 38 35 38 37 37 39 39 35 33 30 27 28 30 23 21 30 30 24 24 25 23 18 17 10 14 10 358 8 7 350 322 281 255 244 238 247 252 251 274 274 292 303 292 184 246 250 226 227 226 245 241 244 245 242 234 242 243 241 240 238
8 15 18 18 23 24 25 27 28 27 23 20 25 26 41 42 48 55 57 57 58 62 42 44 51 35 29 38 35 41 39 40 38 36 35 32 28 34 31 26 29 29 26 24 22 16 17 22 24 18 16 16 10 8 350 3 353 339 289 258 247 247 251 247 244 255 276 293 297 251 243 240 231 235 235 246 240 239 243 234 238 238 239 236 235
16 17 17 15 16 20 26 28 31 30 24 22 28 28 36 41 46 49 57 53 54 52 50 45 45 36 36 24 38 40 40 40 41 37 35 35 32 33 33 29 27 26 25 21 22 19 18 16 17 18 16 12 11 357 4 9 356 359 353 344 301 272 257 245 245 241 243 269 273 289 293 247 241 241 241 233 239 228 233 235 229 230 230 233 229
7 10 17 20 20 20 27 30 30 29 25 27 28 31 32 36 44 45 51 50 45 46 44 41 39 30 39 38 38 36 34 35 37 35 33 32 37 39 40 36 33 31 29 26 22 22 19 22 20 20 16 16 11 15 16 3 1 359 360 351 5 349 324 295 265 247 247 236 257 274 280 295 296 281 216 245 231 236 231 237 236 232 233 236 227
7 14 17 17 19 23 23 32 28 27 23 26 27 32 33 34 42 43 46 46 41 41 40 39 36 37 38 35 34 34 32 34 32 34 32 26 32 38 37 32 26 32 34 30 28 21 19 21 17 19 22 21 16 9 11 9 7 4 1 6 5 357 352 345 339 313 278 266 261 258 269 270 265 283 285 201 243 236 233 229 233 231 232 233 231